timestamp,wind_dir_avg,wind_spd_avg,wind_spd_max_dir,wind_spd_gust,battery_voltage,lat,long
2023-02-21 00:04:00+00:00,177.0,13.72,181.0,15.66,12.33,47.59359,-54.27349
2023-02-21 00:14:00+00:00,180.0,13.97,175.0,18.31,12.33,47.59359,-54.27349
2023-02-21 00:24:00+00:00,179.0,14.54,168.0,17.22,12.33,47.59359,-54.27349
2023-02-21 00:34:00+00:00,180.0,16.61,185.0,19.7,12.33,47.59359,-54.27349
2023-02-21 00:44:00+00:00,177.0,15.2,174.0,17.82,12.33,47.59359,-54.27349
2023-02-21 00:54:00+00:00,182.0,15.25,180.0,18.08,12.33,47.59359,-54.27349
2023-02-21 01:04:00+00:00,178.0,16.69,173.0,20.76,12.33,47.59359,-54.27349
2023-02-21 01:14:01+00:00,180.0,15.86,180.0,17.8,12.33,47.59359,-54.27349
2023-02-21 01:24:01+00:00,180.0,14.83,179.0,16.96,12.33,47.59359,-54.27349
2023-02-21 01:34:01+00:00,180.0,16.15,178.0,20.82,12.33,47.59359,-54.27349
2023-02-21 01:44:01+00:00,178.0,16.47,177.0,19.2,12.33,47.59359,-54.27349
2023-02-21 01:54:01+00:00,178.0,15.61,179.0,18.22,12.33,47.59359,-54.27349
2023-02-21 02:04:01+00:00,180.0,15.11,178.0,17.19,12.33,47.59359,-54.27349
2023-02-21 02:14:00+00:00,180.0,16.62,179.0,19.27,12.25,47.59359,-54.27349
2023-02-21 02:24:00+00:00,180.0,17.35,177.0,21.35,12.25,47.59359,-54.27349
2023-02-21 02:34:00+00:00,179.0,19.24,177.0,22.77,12.25,47.59359,-54.27349
2023-02-21 02:44:00+00:00,180.0,18.67,180.0,21.78,12.25,47.59359,-54.27349
2023-02-21 02:54:00+00:00,178.0,18.78,179.0,22.24,12.25,47.59359,-54.27349
2023-02-21 03:04:00+00:00,185.0,15.92,181.0,19.54,12.25,47.59359,-54.27349
2023-02-21 03:14:00+00:00,181.0,20.44,178.0,23.32,12.25,47.59359,-54.27349
2023-02-21 03:24:00+00:00,181.0,17.35,177.0,20.62,12.25,47.59359,-54.27349
2023-02-21 03:34:00+00:00,184.0,17.59,179.0,22.46,12.25,47.59359,-54.27349
2023-02-21 03:44:00+00:00,181.0,18.02,181.0,20.99,12.25,47.59359,-54.27349
2023-02-21 03:54:00+00:00,180.0,19.23,179.0,22.11,12.25,47.59359,-54.27349
2023-02-21 04:04:00+00:00,179.0,17.95,181.0,21.48,12.25,47.59359,-54.27349
2023-02-21 04:14:01+00:00,182.0,19.78,177.0,24.33,12.17,47.59359,-54.27349
2023-02-21 04:24:01+00:00,179.0,17.7,181.0,21.38,12.17,47.59359,-54.27349
2023-02-21 04:34:01+00:00,185.0,20.25,182.0,23.91,12.17,47.59359,-54.27349
2023-02-21 04:44:01+00:00,181.0,19.83,180.0,22.15,12.17,47.59359,-54.27349
2023-02-21 04:54:01+00:00,182.0,20.33,186.0,24.78,12.17,47.59359,-54.27349
2023-02-21 05:04:01+00:00,180.0,19.61,180.0,23.18,12.17,47.59359,-54.27349
2023-02-21 05:14:01+00:00,178.0,20.84,178.0,25.95,12.17,47.59359,-54.27349
2023-02-21 05:24:01+00:00,178.0,19.94,178.0,23.1,12.17,47.59359,-54.27349
2023-02-21 05:34:01+00:00,176.0,19.86,180.0,23.38,12.17,47.59359,-54.27349
2023-02-21 05:44:01+00:00,176.0,20.66,166.0,25.38,12.17,47.59359,-54.27349
2023-02-21 05:54:01+00:00,177.0,22.72,179.0,27.43,12.17,47.59359,-54.27349
2023-02-21 06:04:01+00:00,179.0,20.8,179.0,25.12,12.17,47.59359,-54.27349
2023-02-21 06:14:00+00:00,175.0,22.14,176.0,26.0,12.17,47.59359,-54.27349
2023-02-21 06:24:00+00:00,177.0,21.16,175.0,24.32,12.17,47.59359,-54.27349
2023-02-21 06:34:00+00:00,176.0,25.43,164.0,32.22,12.17,47.59359,-54.27349
2023-02-21 06:44:00+00:00,180.0,21.89,192.0,26.91,12.17,47.59359,-54.27349
2023-02-21 06:54:00+00:00,180.0,21.0,182.0,27.92,12.17,47.59359,-54.27349
2023-02-21 07:04:00+00:00,178.0,22.47,176.0,28.03,12.17,47.59359,-54.27349
2023-02-21 07:14:01+00:00,182.0,24.17,187.0,27.78,12.17,47.59359,-54.27349
2023-02-21 07:24:01+00:00,186.0,23.84,190.0,28.44,12.17,47.59359,-54.27349
2023-02-21 07:34:01+00:00,182.0,22.16,187.0,27.21,12.17,47.59359,-54.27349
2023-02-21 07:44:01+00:00,183.0,21.14,180.0,25.59,12.17,47.59359,-54.27349
2023-02-21 07:54:01+00:00,183.0,20.21,182.0,24.78,12.17,47.59359,-54.27349
2023-02-21 08:04:01+00:00,182.0,20.36,184.0,23.9,12.17,47.59359,-54.27349
2023-02-21 08:14:00+00:00,180.0,21.72,191.0,27.71,12.17,47.59359,-54.27349
2023-02-21 08:24:00+00:00,181.0,22.66,187.0,28.15,12.17,47.59359,-54.27349
2023-02-21 08:34:00+00:00,187.0,23.01,187.0,27.19,12.17,47.59359,-54.27349
2023-02-21 08:44:00+00:00,181.0,23.21,186.0,27.03,12.17,47.59359,-54.27349
2023-02-21 08:54:00+00:00,185.0,21.97,172.0,28.92,12.17,47.59359,-54.27349
2023-02-21 09:04:00+00:00,187.0,21.22,184.0,26.25,12.17,47.59359,-54.27349
2023-02-21 09:14:00+00:00,187.0,20.34,183.0,24.0,12.09,47.59359,-54.27349
2023-02-21 09:24:00+00:00,185.0,22.28,182.0,26.64,12.09,47.59359,-54.27349
2023-02-21 09:34:00+00:00,188.0,21.22,190.0,25.25,12.09,47.59359,-54.27349
2023-02-21 09:44:00+00:00,186.0,20.96,167.0,24.55,12.09,47.59359,-54.27349
2023-02-21 09:54:00+00:00,179.0,22.88,178.0,27.29,12.09,47.59359,-54.27349
2023-02-21 10:04:00+00:00,184.0,21.42,187.0,24.75,12.09,47.59359,-54.27349
2023-02-21 10:14:00+00:00,188.0,20.15,190.0,23.01,12.17,47.59359,-54.27349
2023-02-21 10:24:00+00:00,187.0,21.14,181.0,29.02,12.17,47.59359,-54.27349
2023-02-21 10:34:00+00:00,205.0,20.96,208.0,24.85,12.17,47.59359,-54.27349
2023-02-21 10:44:00+00:00,193.0,19.74,194.0,23.22,12.17,47.59359,-54.27349
2023-02-21 10:54:00+00:00,195.0,18.26,195.0,21.38,12.17,47.59359,-54.27349
2023-02-21 11:04:00+00:00,195.0,19.66,187.0,22.94,12.17,47.59359,-54.27349
2023-02-21 11:14:00+00:00,194.0,20.22,206.0,24.44,12.17,47.59359,-54.27349
2023-02-21 11:24:00+00:00,196.0,18.52,203.0,22.51,12.17,47.59359,-54.27349
2023-02-21 11:34:00+00:00,197.0,17.95,210.0,22.67,12.17,47.59359,-54.27349
2023-02-21 11:44:00+00:00,197.0,18.66,201.0,22.76,12.17,47.59359,-54.27349
2023-02-21 11:54:00+00:00,200.0,16.33,214.0,18.79,12.17,47.59359,-54.27349
2023-02-21 12:04:00+00:00,206.0,13.92,212.0,18.7,12.17,47.59359,-54.27349
2023-02-21 13:14:00+00:00,218.0,12.22,225.0,15.84,12.33,47.59359,-54.27349
2023-02-21 13:24:00+00:00,228.0,10.05,222.0,11.65,12.33,47.59359,-54.27349
2023-02-21 13:34:00+00:00,218.0,8.91,219.0,9.72,12.33,47.59359,-54.27349
2023-02-21 13:44:00+00:00,211.0,11.79,212.0,13.53,12.33,47.59359,-54.27349
2023-02-21 13:54:00+00:00,200.0,8.6,203.0,9.96,12.33,47.59359,-54.27349
2023-02-21 14:04:00+00:00,200.0,7.95,198.0,8.57,12.33,47.59359,-54.27349
2023-02-21 14:14:00+00:00,204.0,7.05,202.0,7.82,12.57,47.59359,-54.27349
2023-02-21 14:24:00+00:00,212.0,8.62,218.0,10.2,12.57,47.59359,-54.27349
2023-02-21 14:34:00+00:00,211.0,6.43,211.0,7.89,12.57,47.59359,-54.27349
2023-02-21 14:44:00+00:00,223.0,5.33,230.0,6.64,12.57,47.59359,-54.27349
2023-02-21 14:54:00+00:00,211.0,5.4,216.0,6.9,12.57,47.59359,-54.27349
2023-02-21 15:04:00+00:00,184.0,5.6,202.0,6.93,12.57,47.59359,-54.27349
2023-02-21 15:14:00+00:00,185.0,6.61,197.0,7.58,12.73,47.59359,-54.27349
2023-02-21 15:24:00+00:00,201.0,7.12,205.0,7.79,12.73,47.59359,-54.27349
2023-02-21 15:34:00+00:00,212.0,6.4,209.0,7.05,12.73,47.59359,-54.27349
2023-02-21 15:44:00+00:00,215.0,6.92,218.0,7.87,12.73,47.59359,-54.27349
2023-02-21 15:54:00+00:00,219.0,5.63,220.0,6.3,12.73,47.59359,-54.27349
2023-02-21 16:04:00+00:00,215.0,4.94,216.0,5.47,12.73,47.59359,-54.27349
2023-02-21 16:14:00+00:00,219.0,5.16,218.0,5.53,13.76,47.59359,-54.27349
2023-02-21 16:24:00+00:00,214.0,3.78,220.0,4.95,13.76,47.59359,-54.27349
2023-02-21 16:34:00+00:00,202.0,3.9,216.0,4.63,13.76,47.59359,-54.27349
2023-02-21 16:44:00+00:00,162.0,4.42,155.0,4.99,13.76,47.59359,-54.27349
2023-02-21 16:54:00+00:00,174.0,8.7,185.0,9.36,13.76,47.59359,-54.27349
2023-02-21 17:04:00+00:00,182.0,15.21,180.0,16.89,13.76,47.59359,-54.27349
2023-02-21 17:14:00+00:00,217.0,3.1,201.0,6.05,13.68,47.59359,-54.27349
2023-02-21 17:24:00+00:00,244.0,3.26,219.0,5.12,13.68,47.59359,-54.27349
2023-02-21 17:34:00+00:00,309.0,2.48,329.0,3.43,13.68,47.59359,-54.27349
2023-02-21 17:44:00+00:00,264.0,2.06,212.0,4.7,13.68,47.59359,-54.27349
2023-02-21 17:54:00+00:00,190.0,15.26,185.0,31.35,13.68,47.59359,-54.27349
2023-02-21 18:04:00+00:00,248.0,3.58,202.0,8.11,13.68,47.59359,-54.27349
2023-02-21 18:14:01+00:00,263.0,6.11,261.0,6.97,13.68,47.59359,-54.27349
2023-02-21 18:24:01+00:00,287.0,6.09,294.0,6.72,13.68,47.59359,-54.27349
2023-02-21 18:34:01+00:00,300.0,7.55,307.0,8.57,13.68,47.59359,-54.27349
2023-02-21 18:44:01+00:00,277.0,7.87,276.0,9.66,13.68,47.59359,-54.27349
2023-02-21 18:54:01+00:00,262.0,4.19,263.0,4.69,13.68,47.59359,-54.27349
2023-02-21 19:04:01+00:00,261.0,3.92,265.0,4.51,13.68,47.59359,-54.27349
2023-02-21 19:14:00+00:00,269.0,3.71,267.0,4.32,14.24,47.59359,-54.27349
2023-02-21 19:24:00+00:00,274.0,4.7,274.0,5.04,14.24,47.59359,-54.27349
2023-02-21 19:34:00+00:00,288.0,6.93,290.0,7.7,14.24,47.59359,-54.27349
2023-02-21 19:44:00+00:00,268.0,4.92,271.0,5.68,14.24,47.59359,-54.27349
2023-02-21 19:54:00+00:00,280.0,4.95,272.0,5.82,14.24,47.59359,-54.27349
2023-02-21 20:04:00+00:00,282.0,5.47,279.0,5.9,14.24,47.59359,-54.27349
2023-02-21 20:14:00+00:00,281.0,4.97,285.0,5.69,12.97,47.59359,-54.27349
2023-02-21 20:24:00+00:00,281.0,5.57,275.0,6.19,12.97,47.59359,-54.27349
2023-02-21 20:34:00+00:00,270.0,5.79,276.0,6.8,12.97,47.59359,-54.27349
2023-02-21 20:44:00+00:00,287.0,4.7,286.0,5.26,12.97,47.59359,-54.27349
2023-02-21 20:54:00+00:00,277.0,5.28,281.0,5.99,12.97,47.59359,-54.27349
2023-02-21 21:04:00+00:00,264.0,4.19,264.0,4.53,12.97,47.59359,-54.27349
2023-02-21 21:14:00+00:00,285.0,4.5,288.0,5.03,12.89,47.59359,-54.27349
2023-02-21 21:24:00+00:00,304.0,3.83,305.0,4.72,12.89,47.59359,-54.27349
2023-02-21 21:34:00+00:00,283.0,2.53,287.0,2.9,12.89,47.59359,-54.27349
2023-02-21 21:44:00+00:00,283.0,3.04,280.0,3.3,12.89,47.59359,-54.27349
2023-02-21 21:54:00+00:00,270.0,3.94,276.0,4.25,12.89,47.59359,-54.27349
2023-02-21 22:04:00+00:00,267.0,3.86,269.0,4.32,12.89,47.59359,-54.27349
2023-02-21 22:14:00+00:00,278.0,3.53,276.0,3.82,12.41,47.59359,-54.27349
2023-02-21 22:24:00+00:00,278.0,1.85,271.0,2.08,12.41,47.59359,-54.27349
2023-02-21 22:34:00+00:00,314.0,1.79,307.0,2.13,12.41,47.59359,-54.27349
2023-02-21 22:44:00+00:00,272.0,1.73,272.0,2.93,12.41,47.59359,-54.27349
2023-02-21 22:54:00+00:00,259.0,3.35,259.0,3.66,12.41,47.59359,-54.27349
2023-02-21 23:04:00+00:00,266.0,0.55,290.0,1.79,12.41,47.59359,-54.27349
2023-02-21 23:14:00+00:00,284.0,3.48,293.0,3.83,12.41,47.59359,-54.27349
2023-02-21 23:24:00+00:00,273.0,2.46,275.0,3.08,12.41,47.59359,-54.27349
2023-02-21 23:34:00+00:00,247.0,3.85,246.0,4.12,12.41,47.59359,-54.27349
2023-02-21 23:44:00+00:00,191.0,3.22,225.0,4.41,12.41,47.59359,-54.27349
2023-02-21 23:54:00+00:00,217.0,5.09,213.0,6.55,12.41,47.59359,-54.27349
